Etusivu
METAR-TAF:

METAR-TAF

Lentoasemat :

Garner Field

Uvalde, Texas, Yhdysvallat

Leveyspiiri: 29-12-40N, Pituuspiiri: 099-44-36W, korkeus merenpinnasta: 287 m

Tämänhetkinen sää

Tämä raportti tehtiin 17 minuuttia sitten, kello 03.55 UTC
tyyntä
Lämpötila 14°C
Kosteus 44%
Ilmanpaine 1011 hPa
Näkyvyys: 16.1 km
selkeää

METAR: KUVA 250355Z AUTO 00000KT 10SM CLR 14/02 A2986 RMK AO2 T01410016

Aika: 22:12 (04:12 UTC)


TAF: puuttuu

Säähavainnot ja -ennusteet yli 4000 lentoasemalta (METAR- ja TAF-raportit).

Käytössä olevat sääasemat on merkitty karttaan keltaisilla ja punaisilla pisteillä.

Aseta hiiri pisteen päälle nähdäksesi sääaseman nimen.

Klikkaa sitten nähdäksesi säähavainnot ja -ennusteet.

Kartan vaihtaminen: klikkaa mustalla rastilla varustettuja vihreitä pisteitä, niin voit zoomata sisään; viivalla varustettua vihreää pistettä, niin voit zoomata ulos tai vihreitä nuolia, niin pääset viereisille kartoille.


METAR-TAF: